• In Belarus
  • List of Countries
  • For 7 days
  • Water Temperature
  • Satellite Maps
  • Weather Map
  • Weather Widgets
  • user-avatar
    Login

    Hourly Weather Abomey

    Today, 18 January, Friday

    Time Temperature Precipitation Wind Pressure Humidity
    00:00 +29°C° 0 mm 3 mps 739 mmHg 74%
    01:00 +28°C° 0 mm 3 mps 738 mmHg 76%
    02:00 +28°C° 0 mm 2 mps 738 mmHg 78%
    03:00 +28°C° 0 mm 2 mps 738 mmHg 80%
    04:00 +28°C° 0 mm 2 mps 738 mmHg 82%
    05:00 +27°C° 0 mm 2 mps 738 mmHg 84%
    06:00 +27°C° 0 mm 2 mps 739 mmHg 85%
    07:00 +28°C° 0 mm 2 mps 739 mmHg 77%
    08:00 +30°C° 0 mm 2 mps 739 mmHg 70%
    09:00 +31°C° 0 mm 3 mps 740 mmHg 62%
    10:00 +35°C° 0 mm 2 mps 740 mmHg 52%
    11:00 +37°C° 0 mm 2 mps 739 mmHg 43%
    12:00 +39°C° 0 mm 2 mps 739 mmHg 34%
    13:00 +39°C° 0 mm 2 mps 739 mmHg 32%
    14:00 +39°C° 0 mm 2 mps 738 mmHg 29%
    15:00 +40°C° 0 mm 3 mps 737 mmHg 27%
    16:00 +38°C° 0 mm 3 mps 737 mmHg 33%
    17:00 +36°C° 0 mm 4 mps 738 mmHg 39%
    18:00 +35°C° 0 mm 5 mps 738 mmHg 45%
    19:00 +34°C° 0 mm 5 mps 738 mmHg 53%
    20:00 +32°C° 0 mm 4 mps 739 mmHg 60%
    21:00 +30°C° 0 mm 4 mps 739 mmHg 68%
    22:00 +29°C° 0 mm 4 mps 739 mmHg 70%
    23:00 +29°C° 0 mm 4 mps 739 mmHg 72%

    Tomorrow, 19 January, Saturday

    Time Temperature Precipitation Wind Pressure Humidity
    00:00 +29°C° 0 mm 4 mps 739 mmHg 75%
    01:00 +28°C° 0 mm 4 mps 739 mmHg 76%
    02:00 +28°C° 0 mm 4 mps 739 mmHg 77%
    03:00 +28°C° 0 mm 3 mps 739 mmHg 78%
    04:00 +27°C° 0 mm 3 mps 739 mmHg 80%
    05:00 +27°C° 0 mm 2 mps 739 mmHg 82%
    06:00 +27°C° 0 mm 2 mps 739 mmHg 84%
    07:00 +28°C° 0 mm 2 mps 740 mmHg 76%
    08:00 +30°C° 0 mm 3 mps 740 mmHg 68%
    09:00 +31°C° 0 mm 3 mps 741 mmHg 60%
    10:00 +34°C° 0 mm 3 mps 740 mmHg 52%
    11:00 +36°C° 0 mm 2 mps 740 mmHg 43%
    12:00 +38°C° 0 mm 2 mps 740 mmHg 35%
    13:00 +39°C° 0 mm 2 mps 739 mmHg 33%
    14:00 +39°C° 0 mm 2 mps 738 mmHg 32%
    15:00 +39°C° 0 mm 2 mps 737 mmHg 30%
    16:00 +37°C° 0 mm 3 mps 738 mmHg 37%
    17:00 +36°C° 0 mm 4 mps 738 mmHg 44%
    18:00 +34°C° 0 mm 5 mps 738 mmHg 50%
    19:00 +33°C° 0.1 mm 5 mps 739 mmHg 56%
    20:00 +32°C° 0.1 mm 4 mps 739 mmHg 62%
    21:00 +29°C° 0.1 mm 4 mps 740 mmHg 68%
    22:00 +29°C° 0 mm 4 mps 740 mmHg 70%
    23:00 +29°C° 0 mm 3 mps 740 mmHg 73%

    Day after tomorrow, 20 January, Sunday

    Time Temperature Precipitation Wind Pressure Humidity
    00:00 +29°C° 0 mm 3 mps 740 mmHg 75%
    01:00 +28°C° 0 mm 3 mps 739 mmHg 77%
    02:00 +28°C° 0 mm 3 mps 739 mmHg 78%
    03:00 +28°C° 0 mm 3 mps 739 mmHg 80%
    04:00 +28°C° 0 mm 3 mps 739 mmHg 81%
    05:00 +27°C° 0 mm 3 mps 739 mmHg 82%
    06:00 +27°C° 0 mm 2 mps 739 mmHg 84%
    07:00 +28°C° 0 mm 2 mps 740 mmHg 78%
    08:00 +29°C° 0 mm 2 mps 741 mmHg 73%
    09:00 +30°C° 0 mm 2 mps 741 mmHg 67%
    10:00 +34°C° 0 mm 2 mps 741 mmHg 57%
    11:00 +36°C° 0 mm 2 mps 740 mmHg 48%
    12:00 +37°C° 0 mm 1 mps 740 mmHg 38%
    13:00 +37°C° 0 mm 1 mps 739 mmHg 39%
    14:00 +37°C° 0 mm 2 mps 738 mmHg 39%
    15:00 +37°C° 0 mm 2 mps 738 mmHg 40%
    16:00 +37°C° 0 mm 2 mps 738 mmHg 40%
    17:00 +36°C° 0 mm 2 mps 738 mmHg 41%
    18:00 +36°C° 0 mm 2 mps 738 mmHg 42%
    19:00 +34°C° 0.8 mm 3 mps 739 mmHg 52%
    20:00 +33°C° 0.8 mm 3 mps 739 mmHg 61%
    21:00 +30°C° 0.8 mm 3 mps 740 mmHg 71%
    22:00 +29°C° 0.7 mm 3 mps 740 mmHg 72%
    23:00 +29°C° 0.7 mm 3 mps 740 mmHg 74%

    21 January, Monday

    Time Temperature Precipitation Wind Pressure Humidity
    00:00 +29°C° 0.7 mm 3 mps 739 mmHg 75%
    01:00 +28°C° 0 mm 3 mps 739 mmHg 76%
    02:00 +28°C° 0 mm 3 mps 739 mmHg 77%
    03:00 +28°C° 0 mm 3 mps 738 mmHg 77%
    04:00 +28°C° 0 mm 3 mps 739 mmHg 78%
    05:00 +27°C° 0 mm 2 mps 739 mmHg 80%
    06:00 +27°C° 0 mm 2 mps 739 mmHg 81%
    07:00 +29°C° 0.3 mm 2 mps 740 mmHg 74%
    08:00 +30°C° 0.3 mm 3 mps 740 mmHg 68%
    09:00 +31°C° 0.3 mm 3 mps 741 mmHg 61%
    10:00 +34°C° 0.1 mm 2 mps 740 mmHg 53%
    11:00 +36°C° 0.1 mm 2 mps 740 mmHg 44%
    12:00 +38°C° 0.1 mm 2 mps 739 mmHg 36%
    13:00 +38°C° 0 mm 2 mps 739 mmHg 36%
    14:00 +36°C° 0 mm 1 mps 738 mmHg 36%
    15:00 +36°C° 0 mm 1 mps 737 mmHg 35%
    16:00 +36°C° 0 mm 2 mps 737 mmHg 39%
    17:00 +36°C° 0 mm 3 mps 738 mmHg 42%
    18:00 +35°C° 0 mm 3 mps 738 mmHg 46%
    19:00 +34°C° 0 mm 3 mps 738 mmHg 52%
    20:00 +33°C° 0 mm 3 mps 739 mmHg 59%
    21:00 +30°C° 0 mm 3 mps 739 mmHg 65%
    22:00 +30°C° 0 mm 3 mps 739 mmHg 68%
    23:00 +29°C° 0 mm 3 mps 739 mmHg 70%

    22 January, Tuesday

    Time Temperature Precipitation Wind Pressure Humidity
    00:00 +29°C° 0 mm 2 mps 739 mmHg 72%
    01:00 +28°C° 0 mm 2 mps 738 mmHg 74%
    02:00 +28°C° 0 mm 2 mps 738 mmHg 76%
    03:00 +28°C° 0 mm 2 mps 738 mmHg 78%
    04:00 +27°C° 0 mm 2 mps 738 mmHg 79%
    05:00 +27°C° 0 mm 2 mps 738 mmHg 81%
    06:00 +27°C° 0 mm 2 mps 739 mmHg 83%
    07:00 +28°C° 0 mm 2 mps 739 mmHg 76%
    08:00 +30°C° 0 mm 2 mps 740 mmHg 69%
    09:00 +31°C° 0 mm 3 mps 740 mmHg 63%
    10:00 +35°C° 0 mm 2 mps 740 mmHg 52%
    11:00 +37°C° 0 mm 2 mps 740 mmHg 41%
    12:00 +39°C° 0 mm 1 mps 739 mmHg 30%
    13:00 +40°C° 0 mm 1 mps 738 mmHg 27%
    14:00 +40°C° 0 mm 1 mps 737 mmHg 24%
    15:00 +41°C° 0 mm 1 mps 737 mmHg 21%
    16:00 +40°C° 0 mm 1 mps 737 mmHg 25%
    17:00 +38°C° 0 mm 2 mps 737 mmHg 28%
    18:00 +37°C° 0 mm 2 mps 737 mmHg 32%
    19:00 +35°C° 0 mm 3 mps 737 mmHg 47%
    20:00 +33°C° 0 mm 3 mps 738 mmHg 62%
    21:00 +30°C° 0 mm 4 mps 738 mmHg 76%
    22:00 +29°C° 0 mm 4 mps 738 mmHg 75%
    23:00 +29°C° 0 mm 4 mps 738 mmHg 74%

    23 January, Wednesday

    Time Temperature Precipitation Wind Pressure Humidity
    00:00 +29°C° 0 mm 3 mps 738 mmHg 73%
    01:00 +29°C° 0 mm 3 mps 738 mmHg 74%
    02:00 +28°C° 0 mm 3 mps 738 mmHg 76%
    03:00 +28°C° 0 mm 3 mps 737 mmHg 78%
    04:00 +28°C° 0 mm 2 mps 738 mmHg 79%
    05:00 +28°C° 0 mm 2 mps 738 mmHg 81%
    06:00 +27°C° 0 mm 2 mps 738 mmHg 82%
    07:00 +29°C° 0 mm 2 mps 739 mmHg 76%
    08:00 +30°C° 0 mm 2 mps 739 mmHg 69%
    09:00 +31°C° 0 mm 2 mps 740 mmHg 63%
    10:00 +35°C° 0 mm 2 mps 739 mmHg 53%
    11:00 +37°C° 0 mm 1 mps 739 mmHg 43%
    12:00 +37°C° 0 mm 0 mps 739 mmHg 33%
    13:00 +38°C° 0 mm 0 mps 738 mmHg 29%
    14:00 +38°C° 0 mm 0 mps 737 mmHg 25%
    15:00 +39°C° 0 mm 0 mps 736 mmHg 22%
    16:00 +40°C° 0 mm 1 mps 736 mmHg 26%
    17:00 +38°C° 0 mm 2 mps 737 mmHg 31%
    18:00 +37°C° 0 mm 3 mps 737 mmHg 36%
    19:00 +35°C° 0 mm 4 mps 737 mmHg 47%
    20:00 +33°C° 0 mm 4 mps 738 mmHg 59%
    21:00 +30°C° 0 mm 4 mps 738 mmHg 70%
    22:00 +29°C° 0 mm 4 mps 738 mmHg 71%
    23:00 +29°C° 0 mm 4 mps 738 mmHg 72%
    Show more